• în România
  • Lista ţărilor
  • Pe 7 zile
  • Temperatura apei
  • Hartă satelitară
  • Meteo pe hartă
  • Widget-uri
  • user-avatar
    Intrare

    Meteo pe oră la Zubovka

    Astăzi, 24 Septembrie, Luni

    Timp Temperatura Precipitaţii Vânt Presiune Umiditate
    00:00 +7°C° 0 mm 4 m/s 741 mmHg 87%
    01:00 +8°C° 0 mm 3 m/s 741 mmHg 89%
    02:00 +8°C° 0 mm 3 m/s 741 mmHg 90%
    03:00 +7°C° 0 mm 3 m/s 741 mmHg 91%
    04:00 +7°C° 0 mm 3 m/s 741 mmHg 92%
    05:00 +7°C° 0 mm 3 m/s 741 mmHg 93%
    06:00 +5°C° 0 mm 3 m/s 741 mmHg 93%
    07:00 +8°C° 0 mm 3 m/s 741 mmHg 88%
    08:00 +9°C° 0 mm 3 m/s 741 mmHg 83%
    09:00 +10°C° 0 mm 4 m/s 741 mmHg 78%
    10:00 +10°C° 0 mm 5 m/s 741 mmHg 73%
    11:00 +12°C° 0 mm 5 m/s 741 mmHg 67%
    12:00 +13°C° 0 mm 6 m/s 740 mmHg 62%
    13:00 +13°C° 0.1 mm 6 m/s 740 mmHg 63%
    14:00 +12°C° 0.1 mm 7 m/s 739 mmHg 64%
    15:00 +11°C° 0.1 mm 7 m/s 738 mmHg 65%
    16:00 +10°C° 1.2 mm 7 m/s 738 mmHg 71%
    17:00 +10°C° 1.2 mm 8 m/s 737 mmHg 77%
    18:00 +9°C° 1.2 mm 8 m/s 736 mmHg 83%
    19:00 +8°C° 1.5 mm 9 m/s 735 mmHg 84%
    20:00 +10°C° 1.5 mm 9 m/s 734 mmHg 86%
    21:00 +9°C° 1.5 mm 10 m/s 733 mmHg 87%
    22:00 +10°C° 0.4 mm 9 m/s 733 mmHg 86%
    23:00 +10°C° 0.4 mm 8 m/s 732 mmHg 86%

    Mâine, 25 Septembrie, Marţi

    Timp Temperatura Precipitaţii Vânt Presiune Umiditate
    00:00 +10°C° 0.4 mm 8 m/s 732 mmHg 86%
    01:00 +9°C° 0.1 mm 7 m/s 732 mmHg 85%
    02:00 +8°C° 0.1 mm 7 m/s 732 mmHg 85%
    03:00 +8°C° 0.1 mm 6 m/s 732 mmHg 85%
    04:00 +7°C° 0 mm 6 m/s 732 mmHg 85%
    05:00 +7°C° 0 mm 6 m/s 732 mmHg 84%
    06:00 +7°C° 0 mm 6 m/s 732 mmHg 84%
    07:00 +6°C° 0 mm 7 m/s 733 mmHg 83%
    08:00 +6°C° 0 mm 7 m/s 733 mmHg 82%
    09:00 +8°C° 0 mm 7 m/s 734 mmHg 80%
    10:00 +8°C° 0.1 mm 7 m/s 734 mmHg 79%
    11:00 +8°C° 0.1 mm 7 m/s 735 mmHg 78%
    12:00 +8°C° 0.1 mm 7 m/s 735 mmHg 77%
    13:00 +8°C° 0.1 mm 7 m/s 736 mmHg 77%
    14:00 +8°C° 0.1 mm 7 m/s 736 mmHg 77%
    15:00 +8°C° 0.1 mm 7 m/s 737 mmHg 76%
    16:00 +6°C° 0.3 mm 7 m/s 737 mmHg 78%
    17:00 +6°C° 0.3 mm 7 m/s 738 mmHg 79%
    18:00 +5°C° 0.3 mm 7 m/s 739 mmHg 81%
    19:00 +5°C° 0.2 mm 7 m/s 739 mmHg 81%
    20:00 +5°C° 0.2 mm 7 m/s 740 mmHg 81%
    21:00 +5°C° 0.2 mm 7 m/s 740 mmHg 82%
    22:00 +5°C° 0.1 mm 7 m/s 741 mmHg 81%
    23:00 +4°C° 0.1 mm 6 m/s 742 mmHg 81%

    Poimâine, 26 Septembrie, Miercuri

    Timp Temperatura Precipitaţii Vânt Presiune Umiditate
    00:00 +4°C° 0.1 mm 6 m/s 742 mmHg 81%
    01:00 +4°C° 0 mm 6 m/s 743 mmHg 82%
    02:00 +3°C° 0 mm 6 m/s 743 mmHg 82%
    03:00 +3°C° 0 mm 6 m/s 744 mmHg 83%
    04:00 +3°C° 0 mm 6 m/s 745 mmHg 84%
    05:00 +2°C° 0 mm 5 m/s 746 mmHg 85%
    06:00 +2°C° 0 mm 5 m/s 746 mmHg 86%
    07:00 +2°C° 0 mm 5 m/s 747 mmHg 83%
    08:00 +3°C° 0 mm 6 m/s 748 mmHg 79%
    09:00 +3°C° 0 mm 6 m/s 748 mmHg 75%
    10:00 +4°C° 0 mm 6 m/s 749 mmHg 68%
    11:00 +5°C° 0 mm 6 m/s 749 mmHg 62%
    12:00 +7°C° 0 mm 5 m/s 750 mmHg 55%
    13:00 +7°C° 0 mm 5 m/s 750 mmHg 53%
    14:00 +8°C° 0 mm 5 m/s 750 mmHg 50%
    15:00 +8°C° 0 mm 5 m/s 750 mmHg 47%
    16:00 +7°C° 0 mm 4 m/s 750 mmHg 52%
    17:00 +7°C° 0 mm 3 m/s 750 mmHg 57%
    18:00 +5°C° 0 mm 3 m/s 750 mmHg 61%
    19:00 +5°C° 0 mm 3 m/s 750 mmHg 63%
    20:00 +4°C° 0 mm 3 m/s 750 mmHg 64%
    21:00 +3°C° 0 mm 4 m/s 749 mmHg 65%
    22:00 +4°C° 0 mm 4 m/s 749 mmHg 65%
    23:00 +3°C° 0 mm 5 m/s 748 mmHg 65%

    27 Septembrie, Joi

    Timp Temperatura Precipitaţii Vânt Presiune Umiditate
    00:00 +3°C° 0 mm 6 m/s 748 mmHg 65%
    01:00 +3°C° 0 mm 6 m/s 747 mmHg 66%
    02:00 +3°C° 0 mm 7 m/s 746 mmHg 67%
    03:00 +4°C° 0 mm 7 m/s 746 mmHg 69%
    04:00 +4°C° 0.4 mm 8 m/s 745 mmHg 70%
    05:00 +4°C° 0.4 mm 8 m/s 744 mmHg 72%
    06:00 +3°C° 0.4 mm 9 m/s 743 mmHg 74%
    07:00 +3°C° 1 mm 9 m/s 742 mmHg 76%
    08:00 +3°C° 1 mm 9 m/s 742 mmHg 78%
    09:00 +3°C° 1 mm 10 m/s 741 mmHg 80%
    10:00 +3°C° 0.6 mm 9 m/s 741 mmHg 82%
    11:00 +5°C° 0.6 mm 9 m/s 741 mmHg 83%
    12:00 +5°C° 0.6 mm 9 m/s 740 mmHg 84%
    13:00 +6°C° 0 mm 8 m/s 741 mmHg 82%
    14:00 +7°C° 0 mm 8 m/s 741 mmHg 80%
    15:00 +7°C° 0 mm 8 m/s 741 mmHg 78%
    16:00 +8°C° 0 mm 7 m/s 741 mmHg 80%
    17:00 +8°C° 0 mm 6 m/s 741 mmHg 82%
    18:00 +7°C° 0 mm 6 m/s 741 mmHg 84%
    19:00 +7°C° 0 mm 6 m/s 741 mmHg 86%
    20:00 +7°C° 0 mm 6 m/s 741 mmHg 88%
    21:00 +7°C° 0 mm 5 m/s 741 mmHg 90%
    22:00 +7°C° 0 mm 5 m/s 741 mmHg 90%
    23:00 +7°C° 0 mm 5 m/s 741 mmHg 90%

    28 Septembrie, Vineri

    Timp Temperatura Precipitaţii Vânt Presiune Umiditate
    00:00 +8°C° 0 mm 5 m/s 740 mmHg 90%
    01:00 +8°C° 0.1 mm 5 m/s 740 mmHg 91%
    02:00 +8°C° 0.1 mm 5 m/s 739 mmHg 91%
    03:00 +8°C° 0.1 mm 6 m/s 739 mmHg 92%
    04:00 +9°C° 0.1 mm 7 m/s 738 mmHg 91%
    05:00 +10°C° 0.1 mm 7 m/s 738 mmHg 90%
    06:00 +11°C° 0.1 mm 8 m/s 737 mmHg 89%
    07:00 +11°C° 0 mm 9 m/s 737 mmHg 87%
    08:00 +11°C° 0 mm 9 m/s 736 mmHg 85%
    09:00 +12°C° 0 mm 10 m/s 736 mmHg 83%
    10:00 +12°C° 0.1 mm 10 m/s 736 mmHg 83%
    11:00 +12°C° 0.1 mm 10 m/s 736 mmHg 83%
    12:00 +12°C° 0.1 mm 10 m/s 736 mmHg 83%
    13:00 +12°C° 0.4 mm 10 m/s 736 mmHg 82%
    14:00 +12°C° 0.4 mm 9 m/s 737 mmHg 81%
    15:00 +12°C° 0.4 mm 9 m/s 737 mmHg 80%
    16:00 +11°C° 0.1 mm 7 m/s 738 mmHg 79%
    17:00 +10°C° 0.1 mm 6 m/s 739 mmHg 78%
    18:00 +10°C° 0.1 mm 4 m/s 740 mmHg 77%
    19:00 +8°C° 0 mm 4 m/s 740 mmHg 79%
    20:00 +7°C° 0 mm 4 m/s 741 mmHg 82%
    21:00 +7°C° 0 mm 3 m/s 742 mmHg 85%
    22:00 +7°C° 0 mm 3 m/s 742 mmHg 86%
    23:00 +7°C° 0 mm 3 m/s 743 mmHg 87%

    29 Septembrie, Sâmbătă

    Timp Temperatura Precipitaţii Vânt Presiune Umiditate
    00:00 +5°C° 0 mm 3 m/s 743 mmHg 88%
    01:00 +5°C° 0 mm 3 m/s 744 mmHg 89%
    02:00 +5°C° 0 mm 3 m/s 744 mmHg 90%
    03:00 +4°C° 0 mm 3 m/s 744 mmHg 91%
    04:00 +4°C° 0 mm 3 m/s 745 mmHg 92%
    05:00 +4°C° 0 mm 2 m/s 745 mmHg 93%
    06:00 +4°C° 0 mm 2 m/s 746 mmHg 93%
    07:00 +5°C° 0 mm 2 m/s 746 mmHg 88%
    08:00 +5°C° 0 mm 3 m/s 746 mmHg 83%
    09:00 +7°C° 0 mm 3 m/s 747 mmHg 78%
    10:00 +8°C° 0 mm 3 m/s 747 mmHg 70%
    11:00 +9°C° 0 mm 3 m/s 747 mmHg 62%
    12:00 +10°C° 0 mm 3 m/s 748 mmHg 54%
    13:00 +10°C° 0 mm 3 m/s 748 mmHg 52%
    14:00 +10°C° 0 mm 3 m/s 748 mmHg 50%
    15:00 +10°C° 0 mm 3 m/s 748 mmHg 48%
    16:00 +9°C° 0 mm 3 m/s 748 mmHg 51%
    17:00 +9°C° 0 mm 2 m/s 748 mmHg 55%
    18:00 +8°C° 0 mm 2 m/s 749 mmHg 59%
    19:00 +7°C° 0 mm 2 m/s 749 mmHg 61%
    20:00 +7°C° 0 mm 2 m/s 750 mmHg 63%
    21:00 +6°C° 0 mm 2 m/s 750 mmHg 65%
    22:00 +5°C° 0 mm 2 m/s 751 mmHg 67%
    23:00 +5°C° 0 mm 2 m/s 751 mmHg 69%
    Arată mai mult

    3.3.7123123